Date String (YYYY-MM-DD hh:mm:ss) UTC,Instrument flags,absolute air pressure of the measurement (hPa),sample flow rate (lpm),inlet stack bypass flow (lpm),air temperature of the measurement (°C),ambient temperature measured by the external sensor (°C),aerosol sample conditioner tube jacket temperature (°C),OPC LED temperature (°C),internal box temperature (°C),relative humidity of the measurement (%),span deviation,mass concentration of particles derived from Lorenz-Mie calculation of OPC scattering (μg/m³),mass concentration of particles derived from Lorenz-Mie calculation of OPC scattering (μg/m³),mass concentration of particles derived from Lorenz-Mie calculation of OPC scattering (μg/m³)
DateTimeUTC,F1_M11,P_M11,Q1_M11,Q2_M11,T1_M11,T2_M11,T3_M11,T4_M11,T5_M11,U1_M11,ZSPAN_M11,X0_M11,X2_M11,X1_M11
2024-03-02 07:00:00,SystemResetWarning,0820.8,4.99,000.00,023.0,022.1,000.0,031.5,024.8,08.4,0000.0,0005.27,0001.60,0000.95
2024-03-02 07:01:00,SystemResetWarning,0820.8,5.00,000.00,023.0,022.1,000.0,031.5,024.8,08.7,0000.0,0005.34,0001.63,0000.95
2024-03-02 07:02:00,SystemResetWarning,0820.9,4.99,000.00,023.0,022.1,000.0,031.5,024.8,09.1,0000.0,0005.23,0001.58,0000.96
2024-03-02 07:03:00,SystemResetWarning,0820.9,4.99,000.00,023.0,022.1,000.0,031.5,024.8,08.6,0000.0,0005.16,0001.57,0000.96
2024-03-02 07:04:00,SystemResetWarning,0820.9,5.01,000.00,023.0,022.1,000.0,031.5,024.8,08.3,0000.0,0005.32,0001.62,0000.97
2024-03-02 07:05:00,SystemResetWarning,0820.8,5.01,000.00,023.0,022.1,000.0,031.5,024.8,08.3,0000.0,0005.21,0001.63,0000.99
2024-03-02 07:06:00,SystemResetWarning,0820.8,5.00,000.00,023.0,022.1,000.0,031.5,024.8,08.6,0000.0,0005.05,0001.66,0001.01
2024-03-02 07:07:00,SystemResetWarning,0820.8,4.99,000.00,023.0,022.1,000.0,031.5,024.8,08.5,0000.0,0005.10,0001.73,0001.02
2024-03-02 07:08:00,SystemResetWarning,0820.8,4.99,000.00,023.0,022.1,000.0,031.5,024.8,08.3,0000.0,0005.30,0001.78,0001.03
2024-03-02 07:09:00,SystemResetWarning,0820.8,4.99,000.00,023.0,022.1,000.0,031.5,024.8,08.3,0000.0,0004.47,0001.79,0001.03
2024-03-02 07:10:00,SystemResetWarning,0820.8,5.00,000.00,023.0,022.1,000.0,031.5,024.8,08.3,0000.0,0004.25,0001.77,0001.04
2024-03-02 07:11:00,SystemResetWarning,0820.8,5.01,000.00,023.0,022.1,000.0,031.5,024.8,08.7,0000.0,0004.28,0001.77,0001.04
2024-03-02 07:12:00,SystemResetWarning,0820.8,5.01,000.00,023.0,022.1,000.0,031.5,024.8,09.1,0000.0,0004.27,0001.70,0001.02
2024-03-02 07:13:00,SystemResetWarning,0820.8,5.00,000.00,023.0,022.1,000.0,031.5,024.8,08.7,0000.0,0004.56,0001.65,0001.01
2024-03-02 07:14:00,SystemResetWarning,0820.8,5.00,000.00,023.0,022.1,000.0,031.5,024.8,08.4,0000.0,0004.99,0001.66,0001.01
2024-03-02 07:15:00,SystemResetWarning,0820.8,5.00,000.00,023.0,022.1,000.0,031.5,024.8,08.2,0000.0,0006.22,0001.63,0001.01
2024-03-02 07:16:00,SystemResetWarning,0820.8,5.00,000.00,023.0,022.1,000.0,031.5,024.8,08.1,0000.0,0006.45,0001.62,0001.01
2024-03-02 07:17:00,SystemResetWarning,0820.8,5.00,000.00,023.0,022.1,000.0,031.5,024.8,08.0,0000.0,0005.85,0001.59,0001.00
2024-03-02 07:18:00,SystemResetWarning,0820.8,5.00,000.00,023.0,022.1,000.0,031.5,024.8,07.9,0000.0,0005.14,0001.50,0000.99
2024-03-02 07:19:00,SystemResetWarning,0820.8,5.00,000.00,023.0,022.1,000.0,031.5,024.8,08.0,0000.0,0005.04,0001.49,0000.98
2024-03-02 07:20:00,SystemResetWarning,0820.7,5.00,000.00,023.0,022.1,000.0,031.4,024.8,07.9,0000.0,0005.70,0001.51,0000.99
2024-03-02 07:21:00,SystemResetWarning,0820.7,5.00,000.00,023.0,022.1,000.0,031.4,024.8,08.2,0000.0,0006.03,0001.52,0001.00
2024-03-02 07:22:00,SystemResetWarning,0820.8,5.00,000.00,023.0,022.1,000.0,031.4,024.8,08.0,0000.0,0006.09,0001.54,0000.98
2024-03-02 07:23:00,SystemResetWarning,0820.7,5.01,000.00,023.0,022.1,000.0,031.4,024.8,07.9,0000.0,0005.98,0001.57,0000.99
2024-03-02 07:24:00,SystemResetWarning,0820.7,5.00,000.00,023.0,022.1,000.0,031.4,024.8,07.8,0000.0,0005.65,0001.57,0000.99
2024-03-02 07:25:00,SystemResetWarning,0820.7,5.01,000.00,023.0,022.1,000.0,031.4,024.7,07.9,0000.0,0005.37,0001.59,0001.00
2024-03-02 07:26:00,SystemResetWarning,0820.6,5.01,000.00,023.0,022.1,000.0,031.4,024.8,07.8,0000.0,0004.08,0001.60,0001.01
2024-03-02 07:27:00,SystemResetWarning,0820.7,4.99,000.00,023.0,022.1,000.0,031.4,024.8,07.9,0000.0,0003.57,0001.58,0001.00
2024-03-02 07:28:00,SystemResetWarning,0820.8,4.99,000.00,023.0,022.1,000.0,031.4,024.8,08.0,0000.0,0003.62,0001.59,0001.00
2024-03-02 07:29:00,SystemResetWarning,0820.8,5.00,000.00,023.0,022.1,000.0,031.4,024.7,08.0,0000.0,0003.71,0001.62,0001.00
2024-03-02 07:30:00,SystemResetWarning,0820.6,5.00,000.00,023.0,022.1,000.0,031.4,024.7,07.9,0000.0,0003.68,0001.60,0001.00
2024-03-02 07:31:00,SystemResetWarning,0820.6,5.00,000.00,023.0,022.0,000.0,031.4,024.7,07.9,0000.0,0003.19,0001.55,0000.99
2024-03-02 07:32:00,SystemResetWarning,0820.7,5.00,000.00,023.0,022.0,000.0,031.4,024.7,07.9,0000.0,0002.86,0001.50,0000.97
2024-03-02 07:33:00,SystemResetWarning,0820.7,5.01,000.00,023.0,022.0,000.0,031.3,024.7,08.6,0000.0,0003.25,0001.49,0000.97
2024-03-02 07:34:00,SystemResetWarning,0820.7,5.00,000.00,022.9,022.0,000.0,031.4,024.7,08.8,0000.0,0003.33,0001.50,0000.96
2024-03-02 07:35:00,SystemResetWarning,0820.8,5.00,000.00,022.9,022.0,000.0,031.4,024.7,08.4,0000.0,0004.03,0001.51,0000.97
2024-03-02 07:36:00,SystemResetWarning,0820.7,5.00,000.00,022.9,022.0,000.0,031.4,024.7,08.2,0000.0,0004.20,0001.51,0000.97
2024-03-02 07:37:00,SystemResetWarning,0820.7,5.00,000.00,022.9,022.0,000.0,031.4,024.7,08.2,0000.0,0004.23,0001.50,0000.94
2024-03-02 07:38:00,SystemResetWarning,0820.6,5.00,000.00,022.9,022.0,000.0,031.3,024.7,08.1,0000.0,0004.18,0001.49,0000.93
2024-03-02 07:39:00,SystemResetWarning,0820.6,5.00,000.00,022.9,022.0,000.0,031.3,024.7,08.0,0000.0,0004.32,0001.52,0000.93
2024-03-02 07:40:00,SystemResetWarning,0820.5,5.00,000.00,022.9,022.0,000.0,031.3,024.7,08.0,0000.0,0004.33,0001.49,0000.93
2024-03-02 07:41:00,SystemResetWarning,0820.6,5.00,000.00,022.9,022.0,000.0,031.3,024.7,07.9,0000.0,0004.26,0001.46,0000.92
2024-03-02 07:42:00,SystemResetWarning,0820.5,5.00,000.00,022.9,022.0,000.0,031.3,024.7,07.7,0000.0,0004.29,0001.49,0000.91
2024-03-02 07:43:00,SystemResetWarning,0820.6,5.02,000.00,022.9,022.0,000.0,031.3,024.7,07.9,0000.0,0004.02,0001.52,0000.92
2024-03-02 07:44:00,SystemResetWarning,0820.6,5.01,000.00,022.9,022.0,000.0,031.3,024.7,07.9,0000.0,0003.80,0001.53,0000.91
2024-03-02 07:45:00,SystemResetWarning,0820.6,5.01,000.00,022.9,022.0,000.0,031.3,024.7,08.0,0000.0,0004.28,0001.56,0000.93
2024-03-02 07:46:00,SystemResetWarning,0820.7,4.99,000.00,022.9,022.0,000.0,031.3,024.7,08.1,0000.0,0003.63,0001.58,0000.93
2024-03-02 07:47:00,SystemResetWarning,0820.7,4.99,000.00,022.9,022.0,000.0,031.3,024.7,08.1,0000.0,0003.62,0001.63,0000.93
2024-03-02 07:48:00,SystemResetWarning,0820.7,4.99,000.00,022.9,022.0,000.0,031.3,024.7,08.1,0000.0,0003.62,0001.65,0000.95
2024-03-02 07:49:00,SystemResetWarning,0820.6,4.99,000.00,022.9,022.0,000.0,031.3,024.6,08.1,0000.0,0003.99,0001.68,0000.96
2024-03-02 07:50:00,SystemResetWarning,0820.6,5.02,000.00,022.9,022.0,000.0,031.3,024.6,08.1,0000.0,0004.32,0001.69,0000.96
2024-03-02 07:51:00,SystemResetWarning,0820.6,5.00,000.00,022.9,022.0,000.0,031.3,024.6,08.1,0000.0,0004.38,0001.72,0000.97
2024-03-02 07:52:00,SystemResetWarning,0820.6,4.99,000.00,022.9,022.0,000.0,031.3,024.6,08.1,0000.0,0004.37,0001.74,0000.98
2024-03-02 07:53:00,SystemResetWarning,0820.6,4.99,000.00,022.9,022.0,000.0,031.3,024.6,08.1,0000.0,0004.44,0001.76,0000.99
2024-03-02 07:54:00,SystemResetWarning,0820.5,5.00,000.00,022.9,022.0,000.0,031.3,024.6,08.1,0000.0,0004.51,0001.74,0001.00
2024-03-02 07:55:00,SystemResetWarning,0820.5,5.00,000.00,022.9,022.0,000.0,031.3,024.6,08.1,0000.0,0004.66,0001.78,0001.00
2024-03-02 07:56:00,SystemResetWarning,0820.5,5.00,000.00,022.9,022.0,000.0,031.3,024.6,08.1,0000.0,0004.25,0001.77,0001.00
2024-03-02 07:57:00,SystemResetWarning,0820.5,5.01,000.00,022.9,022.0,000.0,031.3,024.6,08.1,0000.0,0004.37,0001.78,0001.00
2024-03-02 07:58:00,SystemResetWarning,0820.5,5.00,000.00,022.9,022.0,000.0,031.2,024.6,08.1,0000.0,0004.41,0001.79,0000.99
2024-03-02 07:59:00,SystemResetWarning,0820.6,5.00,000.00,022.9,022.1,000.0,031.2,024.7,08.1,0000.0,0005.82,0001.72,0000.98
